Crookston, MN

9:57 AM CDT on July 24, 2017 (GMT -0500)
Crookston Municipal-Kirkwood

Weather History for KCKN - July, 2014

Change the Weather History Date:

Saturday, July 5, 2014

  Actual Average Record
Temperature  
Mean Temperature 78 °F -  
Max Temperature 89 °F 74 °F 91 °F (2002)
Min Temperature 66 °F 54 °F 35 °F (2002)
Cooling Degree Days 12    
Growing Degree Days 28 (Base 50)    
Moisture  
Dew Point 67 °F    
Average Humidity 72    
Maximum Humidity 94    
Minimum Humidity 43    
Precipitation  
Precipitation 0.00 in - - ()
Sea Level Pressure  
Sea Level Pressure 29.79 in    
Wind  
Wind Speed 12 mph (SW)    
Max Wind Speed 20 mph    
Max Gust Speed 25 mph    
Visibility 10 miles    
Events Thunderstorm    
Averages and records for this station are not official NWS values.
T = Trace of Precipitation, MM = Missing Value Source: NWS Daily Summary

Daily Weather History Graph

Daily Weather History Graph

Search for Another Location

Airport or City:

Trip Planner

Search our weather history database for the weather conditions in past years. The results will help you decide how hot, cold, wet, or windy it might be!

Date:

Astronomy

Jul. 05, 2014 Rise Set
Actual Time 5:34 AM CDT 9:27 PM CDT
Civil Twilight 4:54 AM CDT 10:07 PM CDT
Nautical Twilight 3:58 AM CDT 11:02 PM CDT
Astronomical Twilight 2:33 AM CDT 12:26 AM CDT
Moon 2:07 PM CDT (7/5) 12:45 AM CDT (7/5)
Length of Visible Light 17h 13m
Length of Day
15h 52m
First Quarter, 52% of the Moon is Illuminated
Jul 5
First Quarter
Jul 12
Full
Jul 18
Last Quarter
Jul 26
New
Aug 3
First Quarter

Hourly Weather History & Observations

Time (CDT) Temp. Heat Index Dew Point Humidity Pressure Visibility Wind Dir Wind Speed Gust Speed Precip Events Conditions
12:15 AM 71.6 °F - 64.4 °F 78% 29.89 in 10.0 mi South 13.8 mph - N/A   Clear
12:34 AM 71.6 °F - 64.4 °F 78% 29.89 in 10.0 mi SSW 13.8 mph - N/A   Clear
12:54 AM 69.8 °F - 64.4 °F 83% 29.88 in 10.0 mi SSW 13.8 mph - N/A   Clear
1:15 AM 69.8 °F - 64.4 °F 83% 29.88 in 10.0 mi SSW 11.5 mph - N/A   Clear
1:34 AM 69.8 °F - 64.4 °F 83% 29.87 in 10.0 mi South 13.8 mph - N/A   Clear
1:55 AM 69.8 °F - 64.4 °F 83% 29.87 in 10.0 mi South 11.5 mph - N/A   Clear
2:14 AM 69.8 °F - 64.4 °F 83% 29.86 in 10.0 mi South 12.7 mph - N/A   Clear
2:34 AM 69.8 °F - 64.4 °F 83% 29.86 in 10.0 mi South 15.0 mph - N/A   Clear
2:55 AM 69.8 °F - 64.4 °F 83% 29.86 in 10.0 mi South 11.5 mph - N/A   Clear
3:14 AM 68.0 °F - 64.4 °F 88% 29.86 in 10.0 mi South 12.7 mph - N/A   Clear
3:35 AM 68.0 °F - 64.4 °F 88% 29.85 in 10.0 mi South 13.8 mph - N/A   Clear
3:55 AM 68.0 °F - 64.4 °F 88% 29.85 in 10.0 mi South 11.5 mph - N/A   Clear
4:14 AM 68.0 °F - 64.4 °F 88% 29.84 in 10.0 mi South 13.8 mph - N/A   Clear
4:35 AM 68.0 °F - 64.4 °F 88% 29.84 in 10.0 mi South 11.5 mph - N/A   Clear
4:54 AM 68.0 °F - 64.4 °F 88% 29.83 in 10.0 mi South 13.8 mph - N/A   Clear
5:15 AM 66.2 °F - 62.6 °F 88% 29.83 in 10.0 mi South 12.7 mph - N/A   Clear
5:35 AM 66.2 °F - 62.6 °F 88% 29.82 in 10.0 mi South 12.7 mph - N/A   Clear
5:54 AM 66.2 °F - 62.6 °F 88% 29.82 in 10.0 mi South 11.5 mph - N/A   Clear
6:15 AM 66.2 °F - 62.6 °F 88% 29.81 in 10.0 mi South 12.7 mph - N/A   Clear
6:35 AM 66.2 °F - 64.4 °F 94% 29.82 in 10.0 mi South 13.8 mph 18.4 mph N/A   Clear
6:54 AM 68.0 °F - 64.4 °F 88% 29.82 in 10.0 mi South 13.8 mph - N/A   Clear
7:15 AM 69.8 °F - 64.4 °F 83% 29.82 in 10.0 mi South 15.0 mph - N/A   Clear
7:34 AM 69.8 °F - 64.4 °F 83% 29.82 in 10.0 mi South 16.1 mph 21.9 mph N/A   Clear
7:54 AM 69.8 °F - 64.4 °F 83% 29.82 in 10.0 mi SSW 16.1 mph - N/A   Clear
8:15 AM 71.6 °F - 66.2 °F 83% 29.82 in 10.0 mi SSW 18.4 mph 23.0 mph N/A   Clear
8:34 AM 71.6 °F - 64.4 °F 78% 29.81 in 10.0 mi SSW 17.3 mph 24.2 mph N/A   Clear
8:55 AM 73.4 °F - 66.2 °F 78% 29.82 in 10.0 mi SSW 19.6 mph 25.3 mph N/A   Clear
9:15 AM 73.4 °F - 66.2 °F 78% 29.81 in 10.0 mi SSW 17.3 mph 21.9 mph N/A   Clear
9:34 AM 73.4 °F - 66.2 °F 78% 29.81 in 10.0 mi SSW 16.1 mph 21.9 mph N/A   Clear
9:55 AM 75.2 °F - 66.2 °F 73% 29.81 in 10.0 mi SSW 15.0 mph - N/A   Clear
10:15 AM 77.0 °F - 68.0 °F 74% 29.81 in 10.0 mi SW 17.3 mph - N/A   Clear
10:34 AM 77.0 °F - 68.0 °F 74% 29.80 in 10.0 mi SW 13.8 mph - N/A   Clear
10:55 AM 78.8 °F - 69.8 °F 74% 29.80 in 10.0 mi SSW 10.4 mph - N/A   Clear
11:14 AM 78.8 °F - 69.8 °F 74% 29.80 in 10.0 mi SSW 13.8 mph 17.3 mph N/A   Clear
11:34 AM 80.6 °F 83.9 °F 69.8 °F 70% 29.79 in 10.0 mi SSW 11.5 mph 17.3 mph N/A   Clear
11:55 AM 80.6 °F 83.9 °F 69.8 °F 70% 29.79 in 10.0 mi SSW 15.0 mph - N/A   Clear
12:14 PM 82.4 °F 87.2 °F 71.6 °F 70% 29.79 in 10.0 mi SSW 12.7 mph - N/A   Clear
12:35 PM 82.4 °F 87.2 °F 71.6 °F 70% 29.79 in 10.0 mi SW 13.8 mph - N/A   Clear
12:55 PM 82.4 °F 87.2 °F 71.6 °F 70% 29.78 in 10.0 mi SSW 15.0 mph 18.4 mph N/A   Clear
1:14 PM 84.2 °F 89.6 °F 71.6 °F 66% 29.78 in 10.0 mi SW 12.7 mph - N/A   Clear
1:35 PM 84.2 °F 89.6 °F 71.6 °F 66% 29.77 in 10.0 mi SSW 12.7 mph - N/A   Clear
1:54 PM 84.2 °F 90.9 °F 73.4 °F 70% 29.77 in 10.0 mi SW 13.8 mph - N/A   Clear
2:14 PM 86.0 °F 93.4 °F 73.4 °F 66% 29.77 in 10.0 mi SW 12.7 mph - N/A   Clear
2:35 PM 86.0 °F 93.4 °F 73.4 °F 66% 29.76 in 10.0 mi SSW 12.7 mph - N/A   Clear
3:15 PM 89.6 °F 98.2 °F 73.4 °F 59% 29.75 in 10.0 mi SW 10.4 mph - N/A   Clear
3:35 PM 89.6 °F 98.2 °F 73.4 °F 59% 29.74 in 10.0 mi WSW 11.5 mph - N/A   Clear
3:54 PM 89.6 °F 98.2 °F 73.4 °F 59% 29.74 in 10.0 mi WSW 9.2 mph - N/A   Clear
4:15 PM 89.6 °F 94.7 °F 69.8 °F 52% 29.74 in 10.0 mi West 10.4 mph - N/A   Clear
4:34 PM 87.8 °F 93.8 °F 71.6 °F 58% 29.74 in 10.0 mi West 8.1 mph - N/A   Clear
4:54 PM 89.6 °F 94.7 °F 69.8 °F 52% 29.74 in 10.0 mi West 13.8 mph 19.6 mph N/A   Clear
5:15 PM 89.6 °F 94.7 °F 69.8 °F 52% 29.74 in 10.0 mi WNW 12.7 mph - N/A   Clear
5:34 PM 89.6 °F 94.7 °F 69.8 °F 52% 29.74 in 10.0 mi WNW 11.5 mph 18.4 mph N/A   Clear
5:55 PM 89.6 °F 91.1 °F 64.4 °F 43% 29.74 in 10.0 mi WNW 12.7 mph - N/A   Clear
6:14 PM 87.8 °F 89.4 °F 64.4 °F 46% 29.75 in 10.0 mi NW 9.2 mph - N/A   Clear
6:35 PM 87.8 °F 89.4 °F 64.4 °F 46% 29.74 in 10.0 mi WNW 9.2 mph - N/A   Clear
6:55 PM 87.8 °F 89.4 °F 64.4 °F 46% 29.75 in 10.0 mi WNW 8.1 mph - N/A   Clear
7:14 PM 86.0 °F 89.4 °F 68.0 °F 55% 29.74 in 10.0 mi West 5.8 mph - N/A   Clear
7:35 PM 86.0 °F 89.4 °F 68.0 °F 55% 29.74 in 10.0 mi West 6.9 mph - N/A   Clear
7:55 PM 82.4 °F 86.3 °F 69.8 °F 66% 29.73 in 10.0 mi West 6.9 mph - N/A   Clear
8:14 PM 82.4 °F 86.3 °F 69.8 °F 66% 29.73 in 10.0 mi West 4.6 mph - N/A   Clear
8:35 PM 78.8 °F - 69.8 °F 74% 29.73 in 10.0 mi Calm Calm - N/A   Clear
8:54 PM 80.6 °F 83.9 °F 69.8 °F 70% 29.73 in 10.0 mi West 4.6 mph - N/A   Clear
9:15 PM 78.8 °F - 69.8 °F 74% 29.74 in 10.0 mi West 5.8 mph - N/A   Clear
9:35 PM 78.8 °F - 68.0 °F 69% 29.73 in 10.0 mi West 4.6 mph - N/A   Clear
9:54 PM 78.8 °F - 68.0 °F 69% 29.73 in 10.0 mi Calm Calm - N/A   Clear
10:15 PM 78.8 °F - 68.0 °F 69% 29.73 in 10.0 mi Calm Calm - N/A   Clear
10:34 PM 78.8 °F - 68.0 °F 69% 29.73 in 10.0 mi Calm Calm - N/A   Clear
10:54 PM 78.8 °F - 68.0 °F 69% 29.72 in 10.0 mi Calm Calm - N/A   Clear
11:15 PM 78.8 °F - 66.2 °F 65% 29.69 in 10.0 mi ENE 4.6 mph - N/A   Clear
11:34 PM 77.0 °F - 68.0 °F 74% 29.69 in 10.0 mi East 3.5 mph - N/A   Clear
11:55 PM 75.2 °F - 68.0 °F 78% 29.67 in 10.0 mi SE 6.9 mph - N/A Thunderstorm Clear